Time,TemperatureF,DewpointF,PressureIn,WindDirection,WindDirectionDegrees,WindSpeedMPH,WindSpeedGustMPH,Humidity,HourlyPrecipIn,Conditions,Clouds,dailyrainin,SoftwareType,DateUTC
2013-08-05 00:10:00,54.4,49.0,30.07,SSW,202,0.0,1.0,82,0.00,,,0.00,weatherlink.com 1.10,2013-08-05 04:10:00,
2013-08-05 00:25:00,53.9,49.0,30.07,SSE,164,1.0,2.0,83,0.00,,,0.00,weatherlink.com 1.10,2013-08-05 04:25:00,
2013-08-05 00:40:00,53.8,49.0,30.06,SW,221,3.0,5.0,84,0.00,,,0.00,weatherlink.com 1.10,2013-08-05 04:40:00,
2013-08-05 00:55:00,53.5,49.0,30.06,SSW,209,2.0,5.0,84,0.00,,,0.00,weatherlink.com 1.10,2013-08-05 04:55:00,
2013-08-05 01:10:00,53.1,49.0,30.06,SW,223,3.0,6.0,85,0.00,,,0.00,weatherlink.com 1.10,2013-08-05 05:10:00,
2013-08-05 01:24:00,53.2,49.0,30.06,SW,229,1.0,3.0,85,0.00,,,0.00,weatherlink.com 1.10,2013-08-05 05:24:00,
2013-08-05 01:39:00,53.1,49.0,30.06,SW,223,2.0,3.0,85,0.00,,,0.00,weatherlink.com 1.10,2013-08-05 05:39:00,
2013-08-05 01:55:00,52.2,48.0,30.06,SW,230,2.0,4.0,86,0.00,,,0.00,weatherlink.com 1.10,2013-08-05 05:55:00,
2013-08-05 02:10:00,51.1,48.0,30.06,South,173,2.0,2.0,88,0.00,,,0.00,weatherlink.com 1.10,2013-08-05 06:10:00,
2013-08-05 02:25:00,51.1,48.0,30.06,SW,217,3.0,4.0,89,0.00,,,0.00,weatherlink.com 1.10,2013-08-05 06:25:00,
2013-08-05 02:40:00,50.9,48.0,30.06,SW,223,3.0,5.0,89,0.00,,,0.00,weatherlink.com 1.10,2013-08-05 06:40:00,
2013-08-05 02:55:00,50.7,48.0,30.06,SW,214,2.0,4.0,89,0.00,,,0.00,weatherlink.com 1.10,2013-08-05 06:55:00,
2013-08-05 03:10:00,50.8,47.0,30.06,South,190,1.0,2.0,88,0.00,,,0.00,weatherlink.com 1.10,2013-08-05 07:10:00,
2013-08-05 03:25:00,50.9,48.0,30.06,SSW,211,3.0,4.0,90,0.00,,,0.00,weatherlink.com 1.10,2013-08-05 07:25:00,
2013-08-05 03:40:00,48.9,46.0,30.06,SSW,212,2.0,4.0,90,0.00,,,0.00,weatherlink.com 1.10,2013-08-05 07:40:00,
2013-08-05 03:55:00,49.1,47.0,30.06,SW,217,3.0,4.0,93,0.00,,,0.00,weatherlink.com 1.10,2013-08-05 07:55:00,
2013-08-05 04:10:00,50.3,48.0,30.06,SSW,210,3.0,4.0,92,0.00,,,0.00,weatherlink.com 1.10,2013-08-05 08:10:00,
2013-08-05 04:25:00,49.9,47.0,30.05,SSW,211,3.0,4.0,91,0.00,,,0.00,weatherlink.com 1.10,2013-08-05 08:25:00,
2013-08-05 04:55:00,49.6,47.0,30.05,South,191,3.0,3.0,92,0.00,,,0.00,weatherlink.com 1.10,2013-08-05 08:55:00,
2013-08-05 05:10:00,50.4,48.0,30.05,SSW,196,3.0,5.0,91,0.00,,,0.00,weatherlink.com 1.10,2013-08-05 09:10:00,
2013-08-05 05:40:00,48.5,46.0,30.05,South,179,2.0,2.0,92,0.00,,,0.00,weatherlink.com 1.10,2013-08-05 09:40:00,
2013-08-05 05:55:00,47.8,46.0,30.05,South,188,1.0,3.0,92,0.00,,,0.00,weatherlink.com 1.10,2013-08-05 09:55:00,
2013-08-05 06:10:00,47.5,46.0,30.05,SSW,211,2.0,4.0,93,0.00,,,0.00,weatherlink.com 1.10,2013-08-05 10:10:00,
2013-08-05 06:25:00,47.7,46.0,30.05,SSW,205,0.0,4.0,94,0.00,,,0.00,weatherlink.com 1.10,2013-08-05 10:25:00,
2013-08-05 06:40:00,47.5,46.0,30.06,South,188,0.0,2.0,94,0.00,,,0.00,weatherlink.com 1.10,2013-08-05 10:40:00,
2013-08-05 07:26:00,52.1,50.0,30.06,SSW,207,2.0,5.0,91,0.00,,,0.00,weatherlink.com 1.10,2013-08-05 11:26:00,
2013-08-05 07:41:00,53.2,50.0,30.06,SSW,203,0.0,4.0,90,0.00,,,0.00,weatherlink.com 1.10,2013-08-05 11:41:00,
2013-08-05 07:56:00,55.0,52.0,30.06,SSW,207,0.0,4.0,90,0.00,,,0.00,weatherlink.com 1.10,2013-08-05 11:56:00,
2013-08-05 08:11:00,57.4,53.0,30.06,SSW,198,1.0,3.0,86,0.00,,,0.00,weatherlink.com 1.10,2013-08-05 12:11:00,
2013-08-05 08:26:00,57.6,54.0,30.06,SSW,198,0.0,0.0,86,0.00,,,0.00,weatherlink.com 1.10,2013-08-05 12:26:00,
2013-08-05 08:41:00,60.0,55.0,30.06,SE,138,0.0,3.0,84,0.00,,,0.00,weatherlink.com 1.10,2013-08-05 12:41:00,
2013-08-05 08:56:00,61.7,56.0,30.06,South,179,0.0,6.0,81,0.00,,,0.00,weatherlink.com 1.10,2013-08-05 12:56:00,
2013-08-05 09:11:00,62.8,57.0,30.06,SE,140,2.0,5.0,81,0.00,,,0.00,weatherlink.com 1.10,2013-08-05 13:11:00,
2013-08-05 09:26:00,63.4,55.0,30.06,SSW,209,5.0,9.0,75,0.00,,,0.00,weatherlink.com 1.10,2013-08-05 13:26:00,
2013-08-05 09:41:00,64.1,55.0,30.05,SSE,166,4.0,8.0,73,0.00,,,0.00,weatherlink.com 1.10,2013-08-05 13:41:00,
2013-08-05 09:56:00,64.9,54.0,30.05,SSW,205,4.0,9.0,67,0.00,,,0.00,weatherlink.com 1.10,2013-08-05 13:56:00,
2013-08-05 10:10:00,65.7,55.0,30.04,SSW,201,4.0,7.0,68,0.00,,,0.00,weatherlink.com 1.10,2013-08-05 14:10:00,
2013-08-05 10:26:00,66.6,54.0,30.04,ESE,121,0.0,5.0,65,0.00,,,0.00,weatherlink.com 1.10,2013-08-05 14:26:00,
2013-08-05 10:41:00,66.9,57.0,30.03,SSE,155,5.0,7.0,70,0.00,,,0.00,weatherlink.com 1.10,2013-08-05 14:41:00,
2013-08-05 10:56:00,66.7,56.0,30.03,South,178,5.0,12.0,69,0.00,,,0.00,weatherlink.com 1.10,2013-08-05 14:56:00,
2013-08-05 11:11:00,67.2,55.0,30.03,South,184,8.0,14.0,64,0.00,,,0.00,weatherlink.com 1.10,2013-08-05 15:11:00,
2013-08-05 11:43:00,67.8,56.0,30.03,WSW,238,3.0,10.0,66,0.00,,,0.00,weatherlink.com 1.10,2013-08-05 15:43:00,
2013-08-05 11:55:00,67.2,54.0,30.03,SSW,207,6.0,10.0,62,0.00,,,0.00,weatherlink.com 1.10,2013-08-05 15:55:00,
2013-08-05 12:10:00,67.1,53.0,30.02,SSW,209,7.0,15.0,61,0.00,,,0.00,weatherlink.com 1.10,2013-08-05 16:10:00,
2013-08-05 12:41:00,67.9,54.0,30.01,South,179,1.0,10.0,61,0.00,,,0.00,weatherlink.com 1.10,2013-08-05 16:41:00,
2013-08-05 12:55:00,67.8,56.0,30.01,SSE,159,0.0,10.0,65,0.00,,,0.00,weatherlink.com 1.10,2013-08-05 16:55:00,
2013-08-05 13:10:00,68.4,54.0,30.01,South,188,3.0,9.0,61,0.00,,,0.00,weatherlink.com 1.10,2013-08-05 17:10:00,
2013-08-05 13:26:00,67.6,54.0,30.00,SSE,162,2.0,10.0,63,0.00,,,0.00,weatherlink.com 1.10,2013-08-05 17:26:00,
2013-08-05 13:41:00,67.4,53.0,30.00,SSE,163,3.0,7.0,61,0.00,,,0.00,weatherlink.com 1.10,2013-08-05 17:41:00,
2013-08-05 13:56:00,68.2,55.0,29.99,SSE,168,3.0,11.0,63,0.00,,,0.00,weatherlink.com 1.10,2013-08-05 17:56:00,
2013-08-05 14:11:00,67.7,55.0,29.99,SSE,152,10.0,12.0,63,0.00,,,0.00,weatherlink.com 1.10,2013-08-05 18:11:00,
2013-08-05 14:26:00,67.5,55.0,29.99,SE,132,8.0,12.0,65,0.00,,,0.00,weatherlink.com 1.10,2013-08-05 18:26:00,
2013-08-05 14:56:00,66.6,54.0,29.98,SE,140,8.0,14.0,64,0.00,,,0.00,weatherlink.com 1.10,2013-08-05 18:56:00,
2013-08-05 15:11:00,66.4,54.0,29.98,SE,134,11.0,14.0,65,0.00,,,0.00,weatherlink.com 1.10,2013-08-05 19:11:00,
2013-08-05 15:26:00,66.1,56.0,29.97,SE,133,10.0,15.0,70,0.00,,,0.00,weatherlink.com 1.10,2013-08-05 19:26:00,
2013-08-05 15:41:00,66.9,56.0,29.96,SE,138,7.0,12.0,69,0.00,,,0.00,weatherlink.com 1.10,2013-08-05 19:41:00,
2013-08-05 15:56:00,66.9,55.0,29.96,ESE,109,14.0,15.0,66,0.00,,,0.00,weatherlink.com 1.10,2013-08-05 19:56:00,
2013-08-05 17:11:00,65.2,57.0,29.94,SE,146,7.0,16.0,75,0.00,,,0.00,weatherlink.com 1.10,2013-08-05 21:11:00,
2013-08-05 17:27:00,64.4,57.0,29.94,ESE,121,13.0,18.0,76,0.00,,,0.00,weatherlink.com 1.10,2013-08-05 21:27:00,
2013-08-05 17:42:00,64.2,57.0,29.94,SE,130,7.0,13.0,77,0.00,,,0.00,weatherlink.com 1.10,2013-08-05 21:42:00,
2013-08-05 17:57:00,64.2,57.0,29.94,SE,146,5.0,15.0,77,0.00,,,0.00,weatherlink.com 1.10,2013-08-05 21:57:00,
2013-08-05 18:42:00,63.6,57.0,29.93,ESE,123,13.0,13.0,79,0.00,,,0.00,weatherlink.com 1.10,2013-08-05 22:42:00,
2013-08-05 18:57:00,63.3,57.0,29.92,SSE,159,6.0,14.0,81,0.00,,,0.00,weatherlink.com 1.10,2013-08-05 22:57:00,
2013-08-05 19:12:00,63.0,57.0,29.92,SE,129,7.0,12.0,82,0.00,,,0.00,weatherlink.com 1.10,2013-08-05 23:12:00,
2013-08-05 19:27:00,62.6,57.0,29.92,SE,142,7.0,11.0,83,0.00,,,0.00,weatherlink.com 1.10,2013-08-05 23:27:00,
2013-08-05 19:42:00,62.2,58.0,29.91,SSE,150,5.0,11.0,85,0.00,,,0.00,weatherlink.com 1.10,2013-08-05 23:42:00,
2013-08-05 19:57:00,61.9,57.0,29.91,SSE,157,7.0,9.0,85,0.00,,,0.00,weatherlink.com 1.10,2013-08-05 23:57:00,
2013-08-05 20:12:00,61.6,57.0,29.91,SE,146,4.0,9.0,86,0.00,,,0.00,weatherlink.com 1.10,2013-08-06 00:12:00,
2013-08-05 20:27:00,61.2,57.0,29.90,SE,141,4.0,9.0,87,0.00,,,0.00,weatherlink.com 1.10,2013-08-06 00:27:00,
2013-08-05 20:57:00,60.8,58.0,29.90,SSE,159,1.0,6.0,89,0.00,,,0.00,weatherlink.com 1.10,2013-08-06 00:57:00,
2013-08-05 21:12:00,60.5,58.0,29.90,South,180,1.0,6.0,91,0.00,,,0.00,weatherlink.com 1.10,2013-08-06 01:12:00,
2013-08-05 21:27:00,60.2,58.0,29.90,SSE,150,2.0,3.0,92,0.00,,,0.00,weatherlink.com 1.10,2013-08-06 01:27:00,
2013-08-05 21:42:00,60.2,58.0,29.90,SSE,151,1.0,5.0,92,0.00,,,0.00,weatherlink.com 1.10,2013-08-06 01:42:00,
2013-08-05 21:56:00,60.5,58.0,29.90,SE,142,4.0,5.0,92,0.00,,,0.00,weatherlink.com 1.10,2013-08-06 01:56:00,
2013-08-05 22:11:00,60.5,58.0,29.90,SSE,165,2.0,5.0,92,0.00,,,0.00,weatherlink.com 1.10,2013-08-06 02:11:00,
2013-08-05 22:42:00,60.5,58.0,29.89,South,174,2.0,3.0,92,0.00,,,0.00,weatherlink.com 1.10,2013-08-06 02:42:00,
2013-08-05 23:12:00,61.5,59.0,29.89,SSW,194,1.0,7.0,90,0.00,,,0.00,weatherlink.com 1.10,2013-08-06 03:12:00,
2013-08-05 23:27:00,61.9,58.0,29.88,South,186,0.0,4.0,88,0.00,,,0.00,weatherlink.com 1.10,2013-08-06 03:27:00,
2013-08-05 23:42:00,61.7,59.0,29.88,South,169,0.0,4.0,89,0.00,,,0.00,weatherlink.com 1.10,2013-08-06 03:42:00,
2013-08-05 23:57:00,61.5,59.0,29.88,South,175,0.0,2.0,90,0.00,,,0.00,weatherlink.com 1.10,2013-08-06 03:57:00,